Tracking 27122 objects as of 24-Mar-2023
HD Live streaming from Space Station
objects crossing your sky now

FENGYUN 1C DEB

Track FENGYUN 1C DEB now!
10-day predictions


NORAD ID: 29803
Int'l Code: 1999-025CV
Perigee: 674.1 km
Apogee: 745.4 km
Inclination: 99.0 °
Period: 98.8 minutes
Semi major axis: 7080 km
RCS: 0.028 m2 (small)
Launch date: May 10, 1999
Source: People's Republic of China (PRC)
Launch site: Taiyaun Space Center, China (TSC)

Note: This is SATELLITE DEBRIS
Your satellite tracking list
Your tracking list is empty




NASA's NSSDC Master Catalog

Two Line Element Set (TLE):
1 29803U 99025CV  23082.84333457  .00058528  00000-0  12676-1 0  9990
2 29803  98.9751 306.5722 0050400 299.7349  59.8838 14.57085264842221
Source of the keplerian elements: AFSPC